Location: Ellingshausen
(50.5460°N, 10.4723°E)
Time: 21:19:53
(UTC+00:00)

Cosmos 2181 Rocket - Pass Details

Date: 18 January 2026
Orbit: 952 x 1013 km, 82.9° (Epoch: 16 February)

Event Time Altitude Azimuth Distance (km) Brightness Sun altitude
Rises 04:46:05 0° 346° (NNW) 3,724 6.9 -22.4°
Reaches altitude 10° 04:48:41 10° 341° (NNW) 2,778 6.1 -21.9°
Maximum altitude 04:54:45 48° 270° (W) 1,299 4.2 -21.0°
Drops below altitude 10° 05:00:51 10° 198° (SSW) 2,786 6.3 -20.0°
Sets 05:03:28 0° 193° (SSW) 3,735 7.0 -19.6°
